• In Uzbekistan
  • List of Countries
  • For 7 days
  • Water Temperature
  • Satellite Maps
  • Weather Map
  • Weather Widgets
  • user-avatar
    Login

    Hourly Weather Koudougou

    Today, 25 June, Tuesday

    Time Temperature Precipitation Wind Pressure Humidity
    00:00 +34°C° 0 mm 4 mps 731 mmHg 41%
    01:00 +34°C° 0 mm 4 mps 731 mmHg 44%
    02:00 +33°C° 0 mm 5 mps 731 mmHg 48%
    03:00 +33°C° 0 mm 6 mps 731 mmHg 52%
    04:00 +32°C° 0.1 mm 6 mps 731 mmHg 51%
    05:00 +32°C° 0.1 mm 6 mps 731 mmHg 50%
    06:00 +30°C° 0 mm 5 mps 732 mmHg 56%
    07:00 +32°C° 0 mm 5 mps 732 mmHg 53%
    08:00 +33°C° 0 mm 5 mps 733 mmHg 50%
    09:00 +34°C° 0 mm 5 mps 733 mmHg 47%
    10:00 +35°C° 0 mm 4 mps 733 mmHg 44%
    11:00 +37°C° 0 mm 4 mps 732 mmHg 40%
    12:00 +38°C° 0 mm 3 mps 732 mmHg 35%
    13:00 +39°C° 0 mm 3 mps 732 mmHg 32%
    14:00 +40°C° 0 mm 3 mps 731 mmHg 30%
    15:00 +41°C° 0 mm 2 mps 731 mmHg 28%
    16:00 +42°C° 0 mm 3 mps 731 mmHg 28%
    17:00 +41°C° 0 mm 4 mps 731 mmHg 29%
    18:00 +41°C° 0 mm 4 mps 731 mmHg 30%
    19:00 +39°C° 0 mm 5 mps 731 mmHg 34%
    20:00 +37°C° 0 mm 5 mps 731 mmHg 39%
    21:00 +35°C° 0 mm 5 mps 731 mmHg 44%
    22:00 +35°C° 0 mm 6 mps 732 mmHg 45%
    23:00 +34°C° 0 mm 6 mps 732 mmHg 47%

    Tomorrow, 26 June, Wednesday

    Time Temperature Precipitation Wind Pressure Humidity
    00:00 +34°C° 0 mm 6 mps 732 mmHg 48%
    01:00 +33°C° 0 mm 6 mps 732 mmHg 52%
    02:00 +32°C° 0 mm 6 mps 732 mmHg 56%
    03:00 +30°C° 0 mm 7 mps 732 mmHg 60%
    04:00 +30°C° 0 mm 7 mps 732 mmHg 62%
    05:00 +29°C° 0 mm 7 mps 732 mmHg 65%
    06:00 +28°C° 0 mm 7 mps 732 mmHg 68%
    07:00 +30°C° 0 mm 6 mps 733 mmHg 63%
    08:00 +32°C° 0 mm 6 mps 733 mmHg 58%
    09:00 +34°C° 0 mm 6 mps 733 mmHg 53%
    10:00 +35°C° 0 mm 6 mps 733 mmHg 47%
    11:00 +37°C° 0 mm 5 mps 733 mmHg 41%
    12:00 +40°C° 0 mm 5 mps 733 mmHg 35%
    13:00 +41°C° 0 mm 5 mps 732 mmHg 33%
    14:00 +41°C° 0 mm 5 mps 731 mmHg 31%
    15:00 +42°C° 0 mm 5 mps 731 mmHg 28%
    16:00 +41°C° 0 mm 5 mps 731 mmHg 29%
    17:00 +41°C° 0 mm 5 mps 730 mmHg 31%
    18:00 +40°C° 0 mm 5 mps 730 mmHg 32%
    19:00 +39°C° 0 mm 5 mps 731 mmHg 35%
    20:00 +37°C° 0 mm 5 mps 731 mmHg 38%
    21:00 +36°C° 0 mm 5 mps 732 mmHg 41%
    22:00 +35°C° 0 mm 6 mps 732 mmHg 44%
    23:00 +34°C° 0 mm 6 mps 733 mmHg 46%

    Day after tomorrow, 27 June, Thursday

    Time Temperature Precipitation Wind Pressure Humidity
    00:00 +34°C° 0 mm 7 mps 733 mmHg 49%
    01:00 +32°C° 2.8 mm 7 mps 733 mmHg 57%
    02:00 +29°C° 2.8 mm 8 mps 733 mmHg 65%
    03:00 +27°C° 2.8 mm 9 mps 733 mmHg 73%
    04:00 +27°C° 0.8 mm 8 mps 733 mmHg 73%
    05:00 +27°C° 0.8 mm 7 mps 732 mmHg 73%
    06:00 +27°C° 0.8 mm 6 mps 732 mmHg 73%
    07:00 +28°C° 0 mm 6 mps 733 mmHg 69%
    08:00 +29°C° 0 mm 6 mps 733 mmHg 66%
    09:00 +30°C° 0 mm 6 mps 733 mmHg 62%
    10:00 +33°C° 0 mm 6 mps 733 mmHg 57%
    11:00 +35°C° 0 mm 6 mps 733 mmHg 51%
    12:00 +36°C° 0 mm 6 mps 733 mmHg 46%
    13:00 +37°C° 0 mm 5 mps 733 mmHg 44%
    14:00 +37°C° 0 mm 4 mps 732 mmHg 41%
    15:00 +38°C° 0 mm 4 mps 732 mmHg 39%
    16:00 +38°C° 0 mm 4 mps 731 mmHg 40%
    17:00 +37°C° 0 mm 4 mps 731 mmHg 41%
    18:00 +37°C° 0 mm 4 mps 731 mmHg 41%
    19:00 +36°C° 0 mm 4 mps 731 mmHg 43%
    20:00 +35°C° 0 mm 4 mps 732 mmHg 45%
    21:00 +35°C° 0 mm 3 mps 732 mmHg 47%
    22:00 +34°C° 0 mm 3 mps 733 mmHg 49%
    23:00 +34°C° 0 mm 3 mps 733 mmHg 50%

    28 June, Friday

    Time Temperature Precipitation Wind Pressure Humidity
    00:00 +32°C° 0 mm 2 mps 733 mmHg 52%
    01:00 +30°C° 6.5 mm 4 mps 733 mmHg 63%
    02:00 +28°C° 6.5 mm 5 mps 732 mmHg 75%
    03:00 +26°C° 6.5 mm 7 mps 732 mmHg 86%
    04:00 +26°C° 2.7 mm 6 mps 732 mmHg 79%
    05:00 +27°C° 2.7 mm 5 mps 732 mmHg 73%
    06:00 +27°C° 2.7 mm 4 mps 732 mmHg 66%
    07:00 +28°C° 0 mm 4 mps 733 mmHg 64%
    08:00 +29°C° 0 mm 4 mps 733 mmHg 61%
    09:00 +30°C° 0 mm 4 mps 733 mmHg 59%
    10:00 +32°C° 0 mm 4 mps 733 mmHg 56%
    11:00 +33°C° 0 mm 4 mps 733 mmHg 54%
    12:00 +34°C° 0 mm 4 mps 733 mmHg 51%
    13:00 +34°C° 0 mm 4 mps 732 mmHg 48%
    14:00 +35°C° 0 mm 3 mps 732 mmHg 45%
    15:00 +36°C° 0 mm 3 mps 731 mmHg 42%
    16:00 +36°C° 0 mm 3 mps 731 mmHg 42%
    17:00 +35°C° 0 mm 2 mps 731 mmHg 43%
    18:00 +35°C° 0 mm 2 mps 730 mmHg 43%
    19:00 +34°C° 0 mm 1 mps 731 mmHg 46%
    20:00 +33°C° 0 mm 1 mps 731 mmHg 48%
    21:00 +32°C° 0 mm 1 mps 732 mmHg 51%
    22:00 +32°C° 0.3 mm 2 mps 732 mmHg 54%
    23:00 +31°C° 0.3 mm 2 mps 732 mmHg 57%

    29 June, Saturday

    Time Temperature Precipitation Wind Pressure Humidity
    00:00 +30°C° 0.3 mm 3 mps 732 mmHg 61%
    01:00 +30°C° 0.1 mm 3 mps 732 mmHg 64%
    02:00 +29°C° 0.1 mm 4 mps 732 mmHg 67%
    03:00 +29°C° 0.1 mm 4 mps 732 mmHg 71%
    04:00 +29°C° 0 mm 4 mps 732 mmHg 72%
    05:00 +28°C° 0 mm 4 mps 732 mmHg 74%
    06:00 +28°C° 0 mm 5 mps 732 mmHg 76%
    07:00 +29°C° 0 mm 5 mps 732 mmHg 73%
    08:00 +30°C° 0 mm 5 mps 733 mmHg 71%
    09:00 +32°C° 0 mm 5 mps 733 mmHg 68%
    10:00 +33°C° 0.7 mm 4 mps 733 mmHg 63%
    11:00 +34°C° 0.7 mm 4 mps 733 mmHg 58%
    12:00 +35°C° 0.7 mm 3 mps 733 mmHg 53%
    13:00 +32°C° 4.2 mm 4 mps 733 mmHg 62%
    14:00 +29°C° 4.2 mm 4 mps 732 mmHg 72%
    15:00 +26°C° 4.2 mm 5 mps 731 mmHg 82%
    16:00 +26°C° 2.3 mm 4 mps 731 mmHg 81%
    17:00 +27°C° 2.3 mm 4 mps 731 mmHg 80%
    18:00 +27°C° 2.3 mm 3 mps 732 mmHg 79%
    19:00 +27°C° 0 mm 3 mps 732 mmHg 79%
    20:00 +27°C° 0 mm 3 mps 733 mmHg 79%
    21:00 +27°C° 0 mm 3 mps 733 mmHg 78%
    22:00 +27°C° 0 mm 3 mps 733 mmHg 78%
    23:00 +27°C° 0 mm 2 mps 733 mmHg 77%

    30 June, Sunday

    Time Temperature Precipitation Wind Pressure Humidity
    00:00 +27°C° 0 mm 2 mps 733 mmHg 77%
    01:00 +27°C° 0 mm 2 mps 733 mmHg 78%
    02:00 +26°C° 0 mm 2 mps 733 mmHg 79%
    03:00 +26°C° 0 mm 2 mps 733 mmHg 80%
    04:00 +26°C° 0 mm 2 mps 733 mmHg 81%
    05:00 +26°C° 0 mm 2 mps 734 mmHg 82%
    06:00 +26°C° 0 mm 2 mps 734 mmHg 83%
    07:00 +27°C° 0 mm 2 mps 734 mmHg 79%
    08:00 +28°C° 0 mm 3 mps 735 mmHg 75%
    09:00 +29°C° 0 mm 3 mps 735 mmHg 72%
    10:00 +30°C° 0 mm 4 mps 735 mmHg 67%
    11:00 +32°C° 0 mm 4 mps 735 mmHg 63%
    12:00 +33°C° 0 mm 4 mps 734 mmHg 59%
    13:00 +34°C° 0 mm 4 mps 734 mmHg 56%
    14:00 +34°C° 0 mm 4 mps 733 mmHg 53%
    15:00 +35°C° 0 mm 3 mps 732 mmHg 51%
    16:00 +35°C° 0 mm 3 mps 732 mmHg 52%
    17:00 +34°C° 0 mm 3 mps 732 mmHg 52%
    18:00 +34°C° 0 mm 3 mps 732 mmHg 53%
    19:00 +33°C° 0 mm 3 mps 732 mmHg 55%
    20:00 +33°C° 0 mm 3 mps 733 mmHg 58%
    21:00 +31°C° 0 mm 3 mps 733 mmHg 61%
    22:00 +31°C° 0 mm 3 mps 733 mmHg 62%
    23:00 +30°C° 0 mm 2 mps 734 mmHg 64%
    Show more